Tracking 32139 objects as of 18-Nov-2025
HD Live streaming from Space Station
objects crossing your sky now

JIELONG 3 DEB

Track JIELONG 3 DEB now!
10-day predictions


NORAD ID: 65561
Int'l Code: 2025-201M
Perigee: 342.6 km
Apogee: 547.7 km
Inclination: 50.1 °
Period: 93.3 minutes
Semi major axis: 6816 km
RCS: Unknown
Launch date: September 8, 2025
Source: People's Republic of China (PRC)
Launch site: Yellow Sea Launch Area, China (YSLA)

Note: This is SATELLITE DEBRIS
Your satellite tracking list
Your tracking list is empty




NASA's NSSDC Master Catalog

Two Line Element Set (TLE):
1 65561U 25201M   25305.27324625  .00102907  00000-0  15044-2 0  9994
2 65561  50.0789 356.8882 0150415 205.5136 153.8350 15.42743572  8218
Source of the keplerian elements: AFSPC